ELECTRON KICK STAGE R/B

Last updated on Thu Nov 21 2024 00:02:05 GMT+0000 (Coordinated Universal Time)

1 61792U 24201A 24325.57328275 .01388040 24827-5 18769-2 0 9994 2 61792 97.9272 231.4301 0220697 216.2593 142.3544 15.74041302 2351

Satellite not in orbit